Regional Weather Roundup
Issued by NWS Cleveland, OH

Home | Current Version | Previous Version | Graphics & Text | Print | Product List | Glossary On
Versions: 1 2 3 4 5 6 7 8 9 10 11 12 13 14 15 16 17 18 19 20 21 22 23 24 25 26 27 28 29 30 31 32 33 34 35 36 37 38 39 40 41 42 43 44 45 46 47 48 49 50
000
ASUS41 KCLE 240512
RWRCLE
OHIO REGIONAL WEATHER ROUNDUP
NATIONAL WEATHER SERVICE WILMINGTON, OH
100 AM EDT SAT JUN 24 2017

NOTE: "FAIR" INDICATES FEW OR NO CLOUDS BELOW 12,000 FEET WITH NO
SIGNIFICANT WEATHER AND/OR OBSTRUCTIONS TO VISIBILITY.

OHZ001>008-015>018-024>027-034-035-043-044-240600-
   NORTHWEST OHIO

CITY           SKY/WX    TMP DP  RH WIND       PRES   REMARKS
DEFIANCE       FAIR      60  54  80 CALM      29.80R
FINDLAY        FAIR      63  56  78 W5        29.78R
TOLEDO EXPRESS FAIR      61  57  87 SW3       29.77R
TOLEDO EXEC    FAIR      64  59  83 W6        29.77R
LIMA           NOT AVBL
$$

OHZ009>014-019>023-028>033-038-089-240600-
   NORTHEAST OHIO

CITY           SKY/WX    TMP DP  RH WIND       PRES   REMARKS
CLE-HOPKINS    MOCLDY    71  67  87 W12       29.75R
CLE-LAKEFRONT  FAIR      71  67  87 W15       29.71R
CUY CO. ARPT   NOT AVBL
LORAIN-ELYRIA  FAIR      68  62  81 W9        29.75R
ASHTABULA      CLOUDY    69  68  96 W8        29.70S
AKRON-CANTON   LGT RAIN  69  65  86 W9        29.74R FOG
WOOSTER        CLOUDY    68  66  93 W10       29.76R
MANSFIELD      MOCLDY    67  65  93 W8        29.79R
YOUNGSTOWN     LGT RAIN  69  65  86 NW13      29.72R FOG
$$

OHZ042-051>053-060>062-070>072-077>081-240600-
  SOUTHWEST OHIO

CITY           SKY/WX    TMP DP  RH WIND       PRES   REMARKS
CINC-COVINGTON FAIR      66  65  96 CALM      29.88R
CINC-LUNKEN    NOT AVBL
HAMILTON       FOG       64  64 100 CALM      29.87S VSB 1/4
DAYTON         FAIR      61  60  97 SW8       29.86R
WRIGHT-PAT AFB FAIR      64  64 100 SW8       29.84R
DAYTON GENERAL FAIR      63  63 100 SW3       29.85R FOG
WILMINGTON     FAIR      66  66 100 W8        29.86R
$$

OHZ036-037-039>041-045>050-054>059-063>069-073>076-082>088-240600-
  CENTRAL AND SOUTHEAST OHIO

CITY           SKY/WX    TMP DP  RH WIND       PRES   REMARKS
COLUMBUS       LGT RAIN  68  67  96 W7        29.80R
OSU AIRPORT    FAIR      67  67 100 W8        29.81R
BOLTON FIELD   NOT AVBL
RICKENBACK AFB CLOUDY    67  66  97 W3        29.81S
NEWARK         LGT RAIN  68  65  90 NW8       29.79R
MARION         FAIR      66  61  84 W7        29.81R
LANCASTER      LGT RAIN  66  65  96 W6        29.82R
ZANESVILLE     CLOUDY    68  66  93 W7        29.78R
NEW PHILLY     LGT RAIN  69  68  96 VRB5      29.75R FOG
$$




USA.gov is the U.S. government's official web portal to all federal, state and local government web resources and services.